This is the latest recevied weather packets stored in our database for station/object KC1BRV. If no packets are shown the sender has not sent any weather packets the latest 10 day(s).
| Time | Temp. | Humidity | Pressure | Rain* | Wind** | Luminosity | Snow |
|---|---|---|---|---|---|---|---|
| 1777918052 | 20° C | 31% | 1010.7 hPa | 0 mm | - | 689 W/m² | - |
| 1777917750 | 20° C | 33% | 1010.8 hPa | 0 mm | - | 695 W/m² | - |
| 1777917447 | 20.56° C | 31% | 1010.8 hPa | 0 mm | - | 703 W/m² | - |
| 1777917144 | 20.56° C | 29% | 1010.6 hPa | 0 mm | - | 714 W/m² | - |
| 1777916842 | 20.56° C | 30% | 1011 hPa | 0 mm | - | 722 W/m² | - |
| 1777916540 | 20° C | 33% | 1010.8 hPa | 0 mm | - | 723 W/m² | - |
| 1777916236 | 20.56° C | 29% | 1010.9 hPa | 0 mm | - | 727 W/m² | - |
| 1777915933 | 20.56° C | 30% | 1010.9 hPa | 0 mm | - | 734 W/m² | - |
| 1777915629 | 20.56° C | 30% | 1011 hPa | 0 mm | - | 742 W/m² | - |
| 1777915326 | 20° C | 29% | 1011 hPa | 0 mm | - | 746 W/m² | - |
| 1777915022 | 20.56° C | 31% | 1011.1 hPa | 0 mm | - | 746 W/m² | - |
| 1777914720 | 20° C | 31% | 1010.9 hPa | 0 mm | - | 750 W/m² | - |
| 1777914416 | 20° C | 32% | 1011.1 hPa | 0 mm | - | 753 W/m² | - |
| 1777914114 | 20° C | 30% | 1011 hPa | 0 mm | - | 753 W/m² | - |
| 1777913809 | 20° C | 30% | 1011.2 hPa | 0 mm | - | 751 W/m² | - |
| 1777913506 | 19.44° C | 33% | 1011.3 hPa | 0 mm | - | 757 W/m² | - |
| 1777913203 | 19.44° C | 32% | 1011.3 hPa | 0 mm | - | 762 W/m² | - |
| 1777912899 | 19.44° C | 31% | 1011 hPa | 0 mm | - | 637 W/m² | - |
| 1777912596 | 20° C | 31% | 1011.2 hPa | 0 mm | - | 410 W/m² | - |
| 1777912293 | 20° C | 31% | 1011.5 hPa | 0 mm | - | 745 W/m² | - |
| 1777911988 | 20° C | 30% | 1011.2 hPa | 0 mm | - | 738 W/m² | - |
| 1777911684 | 20° C | 31% | 1011.3 hPa | 0 mm | - | 712 W/m² | - |
| 1777911381 | 19.44° C | 30% | 1011.3 hPa | 0 mm | - | 758 W/m² | - |
| 1777911079 | 19.44° C | 31% | 1011.4 hPa | 0 mm | - | 751 W/m² | - |
| 1777910776 | 20° C | 31% | 1011.6 hPa | 0 mm | - | 751 W/m² | - |
* Rain latest hour (hover to see other rain measurements)
** Current wind speed in m/s (hover to see current wind gust speed)